EW2493 Weather Reports


Display with metric or nautical units.
time (UTC)temp
F
wind
direction
speed
MPH
gust
MPH
rain 1hr
in
rain 24hr
in
rain mn
in
humidity
%
barometer
mb
20260831170045 75 289 5.0 11.0 0.00 0.02 0.02 59 1005.2
20260831164539 73 241 1.0 8.0 0.00 0.02 0.02 65 1005.4
20260831163038 71 268 3.0 9.0 0.00 0.02 0.02 69 1005.6
20260831161533 69 184 2.0 9.0 0.00 0.02 0.02 73 1005.7
20260831160026 68 215 2.0 7.0 0.01 0.02 0.02 73 1005.6
20260831154529 66 268 4.0 7.0 0.01 0.02 0.02 74 1005.7
20260831153019 66 278 3.0 6.0 0.01 0.02 0.02 74 1005.7
20260831151512 65 241 3.0 8.0 0.01 0.02 0.02 69 1005.4
20260831150009 63 274 1.0 7.0 0.00 0.01 0.01 60 1005.2
20260831144503 63 251 3.0 7.0 0.00 0.01 0.01 60 1005.4
20260831143104 62 273 1.0 6.0 0.00 0.01 0.01 42 1005.2
20260831141554 60 204 2.0 8.0 0.00 0.01 0.01 32 1005.4
20260831140050 59 230 1.0 4.0 0.00 0.01 0.01 7 1005.4
20260831134546 58 180 2.0 9.0 0.00 0.01 0.01 1 1005.2
20260831133047 57 167 4.0 8.0 0.00 0.01 0.01 1 1004.9
20260831131536 56 204 2.0 4.0 0.00 0.01 0.01 1 1004.6
20260831130132 54 249 0.0 2.0 0.00 0.01 0.01 1 1004.3
20260831124532 53 247 1.0 4.0 0.00 0.01 0.01 1 1004.0
20260831123032 52 257 1.0 3.0 0.00 0.01 0.01 1 1003.8
20260831121528 52 254 1.0 3.0 0.00 0.01 0.01 1 1003.7
20260831120018 53 238 1.0 2.0 0.00 0.01 0.01 1 1003.6
20260831114513 52 275 0.0 1.0 0.00 0.01 0.01 1 1003.4
20260831113009 51 275 0.0 1.0 0.00 0.01 0.01 1 1003.2
20260831111503 52 279 0.0 0.0 0.00 0.01 0.01 1 1002.9
20260831110059 52 278 0.0 2.0 0.00 0.01 0.01 1 1002.5
20260831104555 53 278 0.0 1.0 0.00 0.01 0.01 1 1002.4
20260831103050 54 279 0.0 1.0 0.00 0.01 0.01 1 1002.6
20260831101546 54 280 2.0 3.0 0.00 0.01 0.01 1 1002.5
20260831094537 55 280 2.0 4.0 0.00 0.01 0.01 1 1002.3
20260831093034 56 283 4.0 5.0 0.00 0.01 0.01 1 1002.4
20260831091528 57 282 3.0 5.0 0.00 0.01 0.01 1 1002.2
20260831090024 58 284 3.0 6.0 0.00 0.01 0.01 1 1002.0
20260831084519 59 281 4.0 6.0 0.00 0.05 0.01 1 1001.8
20260831083016 60 277 2.0 4.0 0.00 0.05 0.01 1 1001.5
20260831081511 61 289 5.0 7.0 0.00 0.05 0.01 1 1001.3
20260831080006 61 289 3.0 6.0 0.00 0.05 0.01 1 1001.4
20260831074504 61 268 0.0 0.0 0.00 0.11 0.01 1 1001.2
20260831073101 62 268 0.0 0.0 0.00 0.11 0.01 1 1001.1
20260831071607 63 268 0.0 3.0 0.00 0.11 0.01 1 1000.8
20260831070050 64 254 0.0 2.0 0.00 0.11 0.01 1 1001.0
20260831064644 65 244 1.0 2.0 0.01 0.12 0.01 1 1001.1
20260831063041 65 7 0.0 0.0 0.01 0.12 0.01 1 1000.5
20260831061540 66 8 0.0 0.0 0.01 0.12 0.01 1 1000.2
20260831060036 66 8 0.0 4.0 0.01 0.12 0.01 12 1000.0
20260831054528 67 338 1.0 6.0 0.00 0.11 0.00 27 1000.2
20260831053027 68 340 1.0 10.0 0.00 0.11 0.00 50 1000.1
20260831051524 68 333 3.0 6.0 0.00 0.11 0.00 46 999.9
20260831050022 68 313 9.0 17.0 0.00 0.11 0.00 35 1000.3
20260831044515 67 300 10.0 15.0 0.00 0.11 0.11 10 1000.4
20260831043013 68 306 10.0 15.0 0.00 0.11 0.11 20 999.7
20260831041507 69 316 9.0 19.0 0.00 0.11 0.11 21 999.1
20260831040008 71 308 9.0 19.0 0.00 0.11 0.11 2 998.7
20260831034600 72 306 7.0 14.0 0.00 0.11 0.11 1 998.7
20260831033111 71 299 6.0 10.0 0.00 0.11 0.11 1 998.5
20260831031558 72 306 5.0 8.0 0.00 0.11 0.11 1 998.7
20260831024602 72 312 5.0 8.0 0.00 0.11 0.11 1 998.7
20260831023056 72 325 3.0 7.0 0.00 0.11 0.11 1 998.3
20260831021553 72 321 1.0 3.0 0.00 0.11 0.11 1 997.8
20260831020049 73 321 0.0 0.0 0.00 0.11 0.11 1 997.4
20260831014544 73 321 0.0 1.0 0.00 0.11 0.11 1 997.3
20260831013052 74 321 1.0 4.0 0.00 0.11 0.11 1 997.1
20260831011536 75 319 2.0 3.0 0.00 0.11 0.11 1 996.7
20260831010031 77 39 0.0 1.0 0.00 0.11 0.11 23 995.8
20260831004526 78 40 0.0 2.0 0.00 0.12 0.11 40 995.4
20260831003121 79 37 1.0 3.0 0.00 0.12 0.11 53 995.6
20260831001524 79 37 1.0 3.0 0.00 0.12 0.11 56 995.9
20260831000014 80 34 2.0 5.0 0.00 0.12 0.11 54 996.2
20260830234508 80 49 2.0 3.0 0.00 0.12 0.11 54 996.2
20260830233004 79 36 2.0 5.0 0.00 0.12 0.11 52 996.4
20260830231611 80 55 2.0 6.0 0.00 0.12 0.11 59 996.6
20260830230055 80 26 2.0 4.0 0.00 0.12 0.11 60 996.5
20260830224604 80 43 4.0 6.0 0.00 0.12 0.11 58 996.7
20260830223048 79 45 4.0 8.0 0.00 0.12 0.11 52 996.5
20260830221542 79 21 5.0 10.0 0.00 0.12 0.11 53 996.6
20260830220038 79 26 5.0 8.0 0.00 0.12 0.11 46 997.0
20260830214532 78 43 4.0 7.0 0.00 0.12 0.11 41 997.2
20260830213028 79 21 5.0 9.0 0.00 0.12 0.11 45 997.2
20260830211525 78 18 4.0 9.0 0.00 0.12 0.11 43 997.0
20260830210020 78 31 3.0 9.0 0.00 0.12 0.11 44 997.1
20260830204516 78 16 4.0 7.0 0.00 0.12 0.11 28 997.1
20260830203020 76 81 4.0 10.0 0.00 0.12 0.11 21 997.2
20260830201506 76 81 7.0 11.0 0.00 0.12 0.11 30 997.2
20260830200001 76 74 5.0 9.0 0.00 0.12 0.11 24 997.4
20260830194633 76 68 6.0 11.0 0.00 0.12 0.11 21 997.7
20260830193052 76 60 6.0 8.0 0.00 0.12 0.11 26 997.8
20260830191555 76 26 4.0 10.0 0.00 0.12 0.11 21 997.8
20260830190044 75 79 4.0 10.0 0.00 0.12 0.11 6 997.9
20260830184540 74 62 5.0 11.0 0.00 0.12 0.11 1 997.8
20260830183035 74 56 5.0 10.0 0.00 0.12 0.11 1 997.9
20260830181631 73 67 5.0 11.0 0.00 0.12 0.11 1 998.0
20260830180025 73 92 5.0 12.0 0.00 0.12 0.11 1 998.0
20260830174521 73 70 6.0 13.0 0.00 0.12 0.11 1 998.2
20260830173019 73 74 6.0 12.0 0.00 0.12 0.11 1 998.4
20260830171515 72 88 8.0 13.0 0.00 0.12 0.11 1 998.3